Fort Meade, MD

11:37 AM EDT on July 26, 2017 (GMT -0400)
Tipton

Weather History for KFME - October, 2013

Change the Weather History Date:

Monday, October 28, 2013

  Actual Average (KBWI) Record (KBWI)
Temperature  
Mean Temperature 47 °F -  
Max Temperature 62 °F 64 °F 87 °F (1919)
Min Temperature 32 °F 43 °F 27 °F (1976)
Degree Days  
Heating Degree Days 18    
Moisture  
Dew Point 35 °F    
Average Humidity 80    
Maximum Humidity 100    
Minimum Humidity 37    
Precipitation  
Precipitation 0.00 in - - ()
Sea Level Pressure  
Sea Level Pressure 30.24 in    
Wind  
Wind Speed 0 mph (WNW)    
Max Wind Speed 7 mph    
Max Gust Speed -    
Visibility 10 miles    
Events      
Averages and records for this station are not official NWS values.
T = Trace of Precipitation, MM = Missing Value Source: NWS Daily Summary

Daily Weather History Graph

Daily Weather History Graph

Search for Another Location

Airport or City:

Trip Planner

Search our weather history database for the weather conditions in past years. The results will help you decide how hot, cold, wet, or windy it might be!

Date:

Astronomy

Oct. 28, 2013 Rise Set
Actual Time 7:30 AM EDT 6:10 PM EDT
Civil Twilight 7:02 AM EDT 6:38 PM EDT
Nautical Twilight 6:31 AM EDT 7:09 PM EDT
Astronomical Twilight 6:00 AM EDT 7:40 PM EDT
Moon 1:24 AM EDT (10/28) 2:49 PM EDT (10/28)
Length of Visible Light 11h 35m
Length of Day
10h 40m
Waning Crescent, 34% of the Moon is Illuminated
Oct 28
Waning Crescent
Nov 3
New
Nov 10
First Quarter
Nov 17
Full
Nov 25
Last Quarter

Hourly Weather History & Observations

Time (EDT) Temp. Dew Point Humidity Pressure Visibility Wind Dir Wind Speed Gust Speed Precip Events Conditions
12:00 AM 33.8 °F 32.0 °F 93% 30.19 in 10.0 mi Calm Calm - N/A   Clear
12:21 AM 33.8 °F 32.0 °F 93% 30.19 in 10.0 mi Calm Calm - N/A   Clear
12:39 AM 33.8 °F 32.0 °F 93% 30.19 in 10.0 mi Calm Calm - N/A   Clear
1:00 AM 33.8 °F 32.0 °F 93% 30.19 in 10.0 mi Calm Calm - N/A   Clear
1:21 AM 32.0 °F 32.0 °F 100% 30.19 in 10.0 mi Calm Calm - N/A   Clear
1:39 AM 32.0 °F 32.0 °F 100% 30.18 in 10.0 mi Calm Calm - N/A   Clear
2:00 AM 32.0 °F 32.0 °F 100% 30.18 in 10.0 mi Calm Calm - N/A   Clear
2:21 AM 32.0 °F 32.0 °F 100% 30.18 in 10.0 mi Calm Calm - N/A   Clear
2:39 AM 32.0 °F 32.0 °F 100% 30.18 in 10.0 mi Calm Calm - N/A   Clear
3:00 AM 32.0 °F 32.0 °F 100% 30.19 in 10.0 mi Calm Calm - N/A   Clear
3:18 AM 32.0 °F 32.0 °F 100% 30.19 in 10.0 mi Calm Calm - N/A   Clear
3:39 AM 32.0 °F 32.0 °F 100% 30.19 in 10.0 mi Calm Calm - N/A   Clear
4:00 AM 32.0 °F 32.0 °F 100% 30.19 in 10.0 mi Calm Calm - N/A   Clear
4:21 AM 32.0 °F 32.0 °F 100% 30.19 in 10.0 mi Calm Calm - N/A   Clear
4:39 AM 32.0 °F 32.0 °F 100% 30.19 in 7.0 mi Calm Calm - N/A   Clear
5:00 AM 32.0 °F 32.0 °F 100% 30.20 in 7.0 mi Calm Calm - N/A   Clear
5:21 AM 32.0 °F 32.0 °F 100% 30.20 in 10.0 mi Calm Calm - N/A   Clear
5:39 AM 32.0 °F 32.0 °F 100% 30.21 in 10.0 mi Calm Calm - N/A   Clear
6:00 AM 32.0 °F 30.2 °F 93% 30.22 in 10.0 mi Calm Calm - N/A   Clear
6:21 AM 32.0 °F 30.2 °F 93% 30.22 in 7.0 mi Calm Calm - N/A   Clear
6:39 AM 32.0 °F 30.2 °F 93% 30.22 in 7.0 mi Calm Calm - N/A   Clear
7:00 AM 32.0 °F 30.2 °F 93% 30.23 in 7.0 mi Calm Calm - N/A   Clear
7:18 AM 32.0 °F 30.2 °F 93% 30.23 in 10.0 mi Calm Calm - N/A   Clear
7:42 AM 32.0 °F 30.2 °F 93% 30.24 in 7.0 mi Calm Calm - N/A   Clear
8:00 AM 32.0 °F 32.0 °F 100% 30.24 in 7.0 mi Calm Calm - N/A   Clear
8:21 AM 32.0 °F 32.0 °F 100% 30.26 in 7.0 mi Calm Calm - N/A   Clear
8:42 AM 33.8 °F 32.0 °F 93% 30.26 in 7.0 mi Calm Calm - N/A   Clear
9:00 AM 35.6 °F 35.6 °F 100% 30.27 in 10.0 mi Calm Calm - N/A   Clear
9:21 AM 39.2 °F 37.4 °F 93% 30.28 in 10.0 mi Calm Calm - N/A   Clear
9:42 AM 44.6 °F 41.0 °F 87% 30.28 in 10.0 mi Calm Calm - N/A   Clear
10:00 AM 46.4 °F 41.0 °F 81% 30.28 in 10.0 mi Calm Calm - N/A   Clear
10:21 AM 50.0 °F 39.2 °F 66% 30.28 in 10.0 mi Calm Calm - N/A   Clear
10:42 AM 51.8 °F 37.4 °F 58% 30.28 in 10.0 mi Calm Calm - N/A   Clear
11:00 AM 53.6 °F 39.2 °F 58% 30.29 in 10.0 mi Calm Calm - N/A   Clear
11:21 AM 55.4 °F 39.2 °F 54% 30.28 in 10.0 mi Calm Calm - N/A   Clear
11:42 AM 57.2 °F 41.0 °F 55% 30.28 in 10.0 mi Calm Calm - N/A   Clear
12:00 PM 57.2 °F 41.0 °F 55% 30.28 in 10.0 mi Calm Calm - N/A   Clear
12:21 PM 57.2 °F 41.0 °F 55% 30.27 in 10.0 mi Calm Calm - N/A   Clear
12:42 PM 59.0 °F 39.2 °F 48% 30.26 in 10.0 mi Calm Calm - N/A   Clear
1:00 PM 59.0 °F 37.4 °F 45% 30.25 in 10.0 mi WNW 6.9 mph - N/A   Clear
1:21 PM 60.8 °F 39.2 °F 45% 30.24 in 10.0 mi West 4.6 mph - N/A   Clear
1:42 PM 60.8 °F 39.2 °F 45% 30.24 in 10.0 mi Calm Calm - N/A   Clear
2:00 PM 60.8 °F 37.4 °F 42% 30.23 in 10.0 mi WNW 6.9 mph - N/A   Clear
4:00 PM 62.6 °F 35.6 °F 37% 30.22 in 10.0 mi NNW 4.6 mph - N/A   Clear
4:21 PM 60.8 °F 37.4 °F 42% 30.22 in 10.0 mi Calm Calm - N/A   Clear
4:42 PM 60.8 °F 35.6 °F 39% 30.23 in 10.0 mi Calm Calm - N/A   Clear
5:03 PM 60.8 °F 37.4 °F 42% 30.23 in 10.0 mi Calm Calm - N/A   Clear
5:21 PM 59.0 °F 35.6 °F 42% 30.24 in 10.0 mi NW 3.5 mph - N/A   Clear
5:42 PM 57.2 °F 39.2 °F 51% 30.24 in 10.0 mi Calm Calm - N/A   Clear
6:03 PM 51.8 °F 39.2 °F 62% 30.24 in 10.0 mi Calm Calm - N/A   Clear
6:21 PM 50.0 °F 39.2 °F 66% 30.25 in 10.0 mi Calm Calm - N/A   Clear
6:42 PM 48.2 °F 39.2 °F 71% 30.25 in 10.0 mi Calm Calm - N/A   Clear
7:03 PM 46.4 °F 39.2 °F 76% 30.26 in 10.0 mi Calm Calm - N/A   Clear
7:21 PM 44.6 °F 37.4 °F 76% 30.27 in 10.0 mi Calm Calm - N/A   Clear
7:42 PM 42.8 °F 37.4 °F 81% 30.27 in 10.0 mi Calm Calm - N/A   Clear
8:03 PM 42.8 °F 37.4 °F 81% 30.27 in 10.0 mi Calm Calm - N/A   Clear
8:21 PM 41.0 °F 37.4 °F 87% 30.28 in 10.0 mi Calm Calm - N/A   Clear
8:42 PM 41.0 °F 37.4 °F 87% 30.28 in 10.0 mi Calm Calm - N/A   Clear
9:03 PM 41.0 °F 37.4 °F 87% 30.29 in 10.0 mi Calm Calm - N/A   Clear
9:21 PM 41.0 °F 37.4 °F 87% 30.29 in 10.0 mi Calm Calm - N/A   Clear
9:42 PM 41.0 °F 37.4 °F 87% 30.29 in 10.0 mi Calm Calm - N/A   Clear
10:03 PM 41.0 °F 37.4 °F 87% 30.30 in 10.0 mi Calm Calm - N/A   Clear
10:21 PM 39.2 °F 37.4 °F 93% 30.31 in 10.0 mi Calm Calm - N/A   Clear
10:42 PM 39.2 °F 37.4 °F 93% 30.31 in 10.0 mi Calm Calm - N/A   Clear
11:03 PM 37.4 °F 35.6 °F 93% 30.31 in 10.0 mi Calm Calm - N/A   Clear
11:21 PM 39.2 °F 37.4 °F 93% 30.31 in 10.0 mi Calm Calm - N/A   Clear
11:42 PM 39.2 °F 37.4 °F 93% 30.32 in 10.0 mi Calm Calm - N/A   Clear